Regional Weather Roundup
Issued by NWS Bismarck, ND

Home | Current Version | Previous Version | Text Only | Print | Product List | Glossary On
Versions: 1 2 3 4 5 6 7 8 9 10 11 12 13 14 15 16 17 18 19 20 21 22 23 24 25 26 27 28 29 30 31 32 33 34 35 36 37 38 39 40 41 42 43 44 45 46 47 48 49 50
407
ASUS43 KBIS 301902
RWRBIS

NWR BROADCAST TEXT
NATIONAL WEATHER SERVICE BISMARCK ND
200 PM CDT SUN APR 30 2017

NOTE: "FAIR" INDICATES FEW OR NO CLOUDS BELOW 12,000 FEET WITH NO
SIGNIFICANT WEATHER AND/OR OBSTRUCTIONS TO VISIBILITY.


CITY           SKY/WX    TMP DP  RH WIND       PRES   REMARKS
WILLISTON      FAIR      66  20  17 S9G16     29.89F
MINOT          FAIR      67  21  17 E9        29.92F
MINOT AFB      FAIR      66  24  20 SE14      29.91F
BISMARCK       FAIR      63  26  24 VRB3      29.96F
DICKINSON      FAIR      61  16  17 SE9G20    29.92F
GARRISON         N/A     61  19  19 VRB6      29.95F
HETTINGER ARPT FAIR      60  21  22 E8        29.96F
JAMESTOWN      FAIR      59  25  27 E12G21    29.96F
HAZEN          FAIR      64  21  19 SE10G17   29.96F
LINTON         FAIR      61  30  31 E16       29.97F
MANDAN         FAIR      59  21  23 E10       29.96F
STANLEY        FAIR      63  21  20 VRB7G17   29.93F
TIOGA          FAIR      63  18  17 SW14      29.91F
WATFORD CITY   FAIR      64  18  16 S12G17    29.90F
$$

CITY           SKY/WX    TMP DP  RH WIND       PRES   REMARKS
GRAND FORKS    FAIR      62  27  26 E10       30.00F
GRAND FORKS AF FAIR      60  25  26 SE8       30.00F
DEVILS LAKE    FAIR      59  26  28 SE15      30.00F
FARGO          FAIR      61  16  17 E15G24    29.96F
CAVALIER       FAIR      61  27  27 SE12G17   30.01F
GRAFTON        FAIR      59  30  33 E8G17     30.03F
GWINNER        CLEAR     57  18  21 MISG      29.94F
LANGDON        FAIR      64  23  20 S10G18    29.99F
ROLLA          FAIR      63  21  20 SE8       29.96F
$$

CITY           SKY/WX    TMP DP  RH WIND       PRES   REMARKS
ABERDEEN       FAIR      56  12  17 NE21G28   29.91F
MOBRIDGE       FAIR      62  22  21 NE10      29.91F
BUFFALO          N/A     59  19  21 VRB6      29.89F
RAPID CITY     FAIR      57  25  29 N13       29.94F
GLASGOW        FAIR      62  33  33 W12G22    29.83F
SIDNEY         FAIR      66  23  19 S12G18    29.88F
WOLF POINT     FAIR      67  30  25 W10G21    29.83F
GLENDIVE       FAIR      65  27  23 SW12G17   29.89
MILES CITY     FAIR      63  27  25 W12G24    29.89F
$$

CITY           SKY/WX    TMP DP  RH WIND       PRES   REMARKS
BILLINGS       PTSUNNY   58  33  39 SW14G20   29.92F
GREAT FALLS    FAIR      55  34  45 SW23G31   29.90F
$$





USA.gov is the U.S. government's official web portal to all federal, state and local government web resources and services.